• In Germany
  • List of Countries
  • For 7 days
  • Water Temperature
  • Satellite Maps
  • Weather Map
  • Weather Widgets
  • user-avatar
    Login

    Hourly Weather Uige

    Today, 17 August, Thursday

    Time Temperature Precipitation Wind Pressure Humidity
    00:00 +20°C° 0 mm 2 mps 691 mmHg 70%
    01:00 +19°C° 0 mm 2 mps 691 mmHg 78%
    02:00 +18°C° 0 mm 2 mps 690 mmHg 81%
    03:00 +18°C° 0 mm 1 mps 690 mmHg 85%
    04:00 +18°C° 0 mm 1 mps 690 mmHg 88%
    05:00 +18°C° 0 mm 1 mps 690 mmHg 87%
    06:00 +18°C° 0 mm 1 mps 691 mmHg 85%
    07:00 +18°C° 0 mm 1 mps 691 mmHg 83%
    08:00 +20°C° 0 mm 2 mps 691 mmHg 69%
    09:00 +24°C° 0 mm 2 mps 692 mmHg 56%
    10:00 +27°C° 0 mm 2 mps 692 mmHg 43%
    11:00 +29°C° 0 mm 2 mps 692 mmHg 36%
    12:00 +32°C° 0 mm 2 mps 692 mmHg 30%
    13:00 +35°C° 0 mm 2 mps 692 mmHg 24%
    14:00 +35°C° 0 mm 2 mps 691 mmHg 23%
    15:00 +35°C° 0 mm 2 mps 691 mmHg 22%
    16:00 +34°C° 0 mm 2 mps 690 mmHg 22%
    17:00 +31°C° 0 mm 2 mps 690 mmHg 27%
    18:00 +29°C° 0 mm 2 mps 690 mmHg 33%
    19:00 +26°C° 0 mm 2 mps 690 mmHg 38%
    20:00 +25°C° 0 mm 2 mps 690 mmHg 48%
    21:00 +23°C° 0 mm 2 mps 691 mmHg 57%
    22:00 +21°C° 0 mm 2 mps 691 mmHg 67%
    23:00 +20°C° 0 mm 2 mps 691 mmHg 72%

    Tomorrow, 18 August, Friday

    Time Temperature Precipitation Wind Pressure Humidity
    00:00 +19°C° 0 mm 2 mps 691 mmHg 78%
    01:00 +18°C° 0 mm 2 mps 691 mmHg 84%
    02:00 +18°C° 0 mm 2 mps 691 mmHg 84%
    03:00 +18°C° 0 mm 2 mps 691 mmHg 85%
    04:00 +18°C° 0 mm 2 mps 690 mmHg 86%
    05:00 +19°C° 0 mm 1 mps 691 mmHg 84%
    06:00 +19°C° 0 mm 1 mps 691 mmHg 83%
    07:00 +19°C° 0 mm 1 mps 691 mmHg 82%
    08:00 +23°C° 0 mm 1 mps 692 mmHg 67%
    09:00 +26°C° 0 mm 1 mps 692 mmHg 52%
    10:00 +30°C° 0 mm 1 mps 693 mmHg 37%
    11:00 +32°C° 0 mm 1 mps 693 mmHg 31%
    12:00 +35°C° 0 mm 1 mps 692 mmHg 26%
    13:00 +37°C° 0 mm 1 mps 692 mmHg 21%
    14:00 +37°C° 0 mm 1 mps 691 mmHg 20%
    15:00 +37°C° 0 mm 2 mps 690 mmHg 20%
    16:00 +36°C° 0 mm 2 mps 689 mmHg 20%
    17:00 +34°C° 0 mm 2 mps 689 mmHg 24%
    18:00 +31°C° 0 mm 2 mps 690 mmHg 29%
    19:00 +28°C° 0 mm 2 mps 690 mmHg 33%
    20:00 +27°C° 0 mm 2 mps 690 mmHg 40%
    21:00 +25°C° 0 mm 2 mps 691 mmHg 47%
    22:00 +24°C° 0 mm 1 mps 691 mmHg 54%
    23:00 +23°C° 0 mm 1 mps 691 mmHg 59%

    Day after tomorrow, 19 August, Saturday

    Time Temperature Precipitation Wind Pressure Humidity
    00:00 +22°C° 0 mm 1 mps 691 mmHg 64%
    01:00 +21°C° 0 mm 1 mps 691 mmHg 69%
    02:00 +20°C° 0 mm 1 mps 690 mmHg 73%
    03:00 +20°C° 0 mm 1 mps 690 mmHg 76%
    04:00 +19°C° 0 mm 1 mps 689 mmHg 79%
    05:00 +19°C° 0 mm 1 mps 690 mmHg 78%
    06:00 +20°C° 0 mm 1 mps 690 mmHg 77%
    07:00 +20°C° 0 mm 1 mps 691 mmHg 75%
    08:00 +24°C° 0 mm 1 mps 692 mmHg 60%
    09:00 +29°C° 0 mm 1 mps 693 mmHg 45%
    10:00 +33°C° 0 mm 1 mps 694 mmHg 30%
    11:00 +35°C° 0 mm 1 mps 693 mmHg 27%
    12:00 +39°C° 0 mm 1 mps 693 mmHg 23%
    13:00 +41°C° 0 mm 1 mps 692 mmHg 19%
    14:00 +39°C° 0 mm 1 mps 691 mmHg 21%
    15:00 +36°C° 0 mm 1 mps 690 mmHg 23%
    16:00 +35°C° 0 mm 2 mps 690 mmHg 25%
    17:00 +34°C° 0 mm 2 mps 690 mmHg 28%
    18:00 +32°C° 0 mm 2 mps 690 mmHg 31%
    19:00 +30°C° 0 mm 2 mps 691 mmHg 34%
    20:00 +29°C° 0 mm 2 mps 691 mmHg 40%
    21:00 +27°C° 0 mm 2 mps 692 mmHg 46%
    22:00 +25°C° 0 mm 2 mps 692 mmHg 52%
    23:00 +24°C° 0 mm 2 mps 692 mmHg 57%

    20 August, Sunday

    Time Temperature Precipitation Wind Pressure Humidity
    00:00 +23°C° 0 mm 2 mps 692 mmHg 63%
    01:00 +20°C° 0 mm 2 mps 691 mmHg 69%
    02:00 +20°C° 0 mm 2 mps 691 mmHg 72%
    03:00 +19°C° 0 mm 2 mps 691 mmHg 75%
    04:00 +19°C° 0 mm 1 mps 690 mmHg 79%
    05:00 +19°C° 0 mm 1 mps 691 mmHg 77%
    06:00 +20°C° 0 mm 1 mps 692 mmHg 76%
    07:00 +20°C° 0 mm 1 mps 692 mmHg 74%
    08:00 +23°C° 0 mm 1 mps 693 mmHg 59%
    09:00 +27°C° 0 mm 2 mps 694 mmHg 44%
    10:00 +30°C° 0 mm 2 mps 695 mmHg 29%
    11:00 +32°C° 0 mm 2 mps 694 mmHg 27%
    12:00 +35°C° 0 mm 2 mps 694 mmHg 24%
    13:00 +37°C° 0 mm 2 mps 693 mmHg 21%
    14:00 +36°C° 0 mm 2 mps 692 mmHg 22%
    15:00 +35°C° 0 mm 2 mps 691 mmHg 23%
    16:00 +34°C° 0 mm 2 mps 691 mmHg 24%
    17:00 +33°C° 0 mm 3 mps 691 mmHg 27%
    18:00 +30°C° 0 mm 3 mps 691 mmHg 31%
    19:00 +28°C° 0 mm 3 mps 692 mmHg 35%
    20:00 +27°C° 0 mm 3 mps 692 mmHg 42%
    21:00 +25°C° 0 mm 2 mps 693 mmHg 50%
    22:00 +23°C° 0 mm 2 mps 693 mmHg 58%
    23:00 +21°C° 0 mm 2 mps 693 mmHg 63%

    21 August, Monday

    Time Temperature Precipitation Wind Pressure Humidity
    00:00 +20°C° 0 mm 2 mps 693 mmHg 68%
    01:00 +19°C° 0 mm 2 mps 693 mmHg 73%
    02:00 +19°C° 0 mm 2 mps 692 mmHg 76%
    03:00 +18°C° 0 mm 2 mps 692 mmHg 79%
    04:00 +17°C° 0 mm 2 mps 692 mmHg 81%
    05:00 +17°C° 0 mm 2 mps 692 mmHg 81%
    06:00 +17°C° 0 mm 2 mps 692 mmHg 81%
    07:00 +17°C° 0 mm 2 mps 692 mmHg 81%
    08:00 +20°C° 0 mm 2 mps 693 mmHg 67%
    09:00 +24°C° 0 mm 2 mps 694 mmHg 53%
    10:00 +28°C° 0 mm 2 mps 694 mmHg 38%
    11:00 +30°C° 0 mm 2 mps 694 mmHg 34%
    12:00 +32°C° 0 mm 2 mps 693 mmHg 29%
    13:00 +35°C° 0 mm 2 mps 692 mmHg 25%
    14:00 +35°C° 0 mm 2 mps 692 mmHg 25%
    15:00 +34°C° 0 mm 2 mps 691 mmHg 25%
    16:00 +34°C° 0 mm 2 mps 690 mmHg 26%
    17:00 +31°C° 0 mm 2 mps 691 mmHg 29%
    18:00 +30°C° 0 mm 3 mps 691 mmHg 32%
    19:00 +28°C° 0 mm 3 mps 691 mmHg 35%
    20:00 +26°C° 0 mm 3 mps 692 mmHg 42%
    21:00 +24°C° 0 mm 2 mps 692 mmHg 50%
    22:00 +21°C° 0 mm 2 mps 692 mmHg 57%
    23:00 +20°C° 0 mm 2 mps 692 mmHg 63%

    22 August, Tuesday

    Time Temperature Precipitation Wind Pressure Humidity
    00:00 +19°C° 0 mm 2 mps 692 mmHg 69%
    01:00 +18°C° 0 mm 2 mps 691 mmHg 75%
    02:00 +18°C° 0 mm 2 mps 691 mmHg 78%
    03:00 +17°C° 0 mm 2 mps 691 mmHg 80%
    04:00 +17°C° 0 mm 2 mps 691 mmHg 83%
    05:00 +17°C° 0 mm 2 mps 691 mmHg 82%
    06:00 +18°C° 0 mm 1 mps 692 mmHg 81%
    07:00 +18°C° 0 mm 1 mps 692 mmHg 79%
    08:00 +21°C° 0 mm 1 mps 692 mmHg 66%
    09:00 +25°C° 0 mm 1 mps 693 mmHg 52%
    10:00 +28°C° 0 mm 2 mps 693 mmHg 39%
    11:00 +30°C° 0 mm 2 mps 693 mmHg 34%
    12:00 +32°C° 0 mm 2 mps 692 mmHg 30%
    13:00 +35°C° 0 mm 2 mps 691 mmHg 26%
    14:00 +35°C° 0 mm 2 mps 691 mmHg 26%
    15:00 +34°C° 0 mm 2 mps 690 mmHg 26%
    16:00 +34°C° 0 mm 2 mps 690 mmHg 26%
    17:00 +31°C° 0 mm 2 mps 690 mmHg 30%
    18:00 +30°C° 0 mm 2 mps 690 mmHg 34%
    19:00 +28°C° 0 mm 2 mps 690 mmHg 37%
    20:00 +26°C° 0 mm 2 mps 690 mmHg 43%
    21:00 +25°C° 0 mm 2 mps 691 mmHg 50%
    22:00 +23°C° 0 mm 2 mps 691 mmHg 56%
    23:00 +21°C° 0 mm 2 mps 691 mmHg 62%
    Show more